Regional Weather Roundup
Issued by NWS

Home | Current Version | Previous Version | Graphics & Text | Print | Product List | Glossary Off
Versions: 1 2 3 4 5 6 7 8 9 10 11 12 13 14 15 16 17 18 19 20 21 22 23 24 25 26 27 28 29 30 31 32 33 34 35 36 37 38 39 40 41 42 43 44 45 46 47 48 49 50

000
ASUS43 KTOP 231808
RWRKS

WEATHER ROUNDUP FOR KANSAS
NATIONAL WEATHER SERVICE GOODLAND KS
100 PM CDT MON APR 23 2018

NOTE:  "FAIR" INDICATES FEW OR NO CLOUDS BELOW 12,000 FEET WITH NO
SIGNIFICANT WEATHER AND/OR OBSTRUCTIONS TO VISIBILITY.

KSZ001>006-013>018-027>032-041>047-231900-
NORTHWEST KANSAS

CITY           SKY/WX    TMP DP  RH WIND       PRES   REMARKS
GOODLAND       SUNNY     62  39  42 S17G25    30.13F
6HR MIN TEMP:  31; 6HR MAX TEMP:  62;

HAYS           MOSUNNY   66  40  38 VRB6      30.15F
HILL CITY      SUNNY     65  40  39 MISG      30.16F
6HR MIN TEMP:  38; 6HR MAX TEMP:  65;

RUSSELL        SUNNY     67  41  38 SE7       30.14F
6HR MIN TEMP:  44; 6HR MAX TEMP:  68;

$$

KSZ061>065-074>080-084>089-231900-
SOUTHWEST KANSAS

CITY           SKY/WX    TMP DP  RH WIND       PRES   REMARKS
DODGE CITY     MOSUNNY   65  41  41 E9G17     30.16F
6HR MIN TEMP:  39; 6HR MAX TEMP:  65;

ELKHART        SUNNY     66  46  48 S12G17    30.14F
GARDEN CITY    SUNNY     63  39  41 S12G20    30.15F
6HR MIN TEMP:  34; 6HR MAX TEMP:  63;

GREAT BEND     SUNNY     65  41  41 NE8       30.16F
LIBERAL        SUNNY     63  39  41 VRB7      30.16F
PRATT          SUNNY     65  40  41 NE7       30.15F
6HR MIN TEMP:  47; 6HR MAX TEMP:  65;

$$

KSZ066>073-081>083-090>101-231900-
SOUTHEAST KANSAS

CITY           SKY/WX    TMP DP  RH WIND       PRES   REMARKS
CHANUTE        CLOUDY    70  47  43 N10G29    30.07F
6HR MIN TEMP:  52; 6HR MAX TEMP:  70;

COFFEYVILLE    CLOUDY    68  47  46 N10       30.07F
6HR MIN TEMP:  52; 6HR MAX TEMP:  69;

HUTCHINSON     SUNNY     68  43  40 VRB3      30.13F
6HR MIN TEMP:  46; 6HR MAX TEMP:  69;

MEDICINE LODGE   N/A     69  43  38 MISG      30.13F
NEWTON         SUNNY     67  39  35 NE8G17    30.13F
PARSONS        CLOUDY    68  48  48 N13       30.08F
6HR MIN TEMP:  51; 6HR MAX TEMP:  68;

WICHITA INTL   MOSUNNY   69  35  28 N7G18     30.11F
6HR MIN TEMP:  45; 6HR MAX TEMP:  70;

WICHITA JABRA  MOSUNNY   68  33  27 N9G16     30.11F
6HR MIN TEMP:  44; 6HR MAX TEMP:  68;

WINFIELD       MOSUNNY   68  47  46 NE10      30.11F
6HR MIN TEMP:  43; 6HR MAX TEMP:  68;

$$

KSZ007>012-019>026-033>040-048>060-102>105-231900-
NORTHEAST KANSAS

CITY           SKY/WX    TMP DP  RH WIND       PRES   REMARKS
CONCORDIA      SUNNY     69  33  26 E7G17     30.13F
6HR MIN TEMP:  39; 6HR MAX TEMP:  71;

EMPORIA        SUNNY     69  39  33 NE9       30.09F
6HR MIN TEMP:  51; 6HR MAX TEMP:  70;

LAWRENCE       SUNNY     73  37  27 NE8G21    30.08F
6HR MIN TEMP:  53; 6HR MAX TEMP:  73;

MANHATTAN      SUNNY     71  33  24 NE10      30.11F
6HR MIN TEMP:  41; 6HR MAX TEMP:  72;

MARYSVILLE     SUNNY     72  34  25 E10G20    30.12F
OLATHE IND     SUNNY     71  40  32 N12G22    30.08F
6HR MIN TEMP:  53; 6HR MAX TEMP:  71;

OLATHE EXE     SUNNY     70  36  28 NE15      30.07F
6HR MIN TEMP:  54; 6HR MAX TEMP:  70;

SALINA         SUNNY     70  32  24 VRB5      30.13F
6HR MIN TEMP:  42; 6HR MAX TEMP:  70;

TOPEKA BILLARD SUNNY     72  39  30 N8G20     30.09F
6HR MIN TEMP:  50; 6HR MAX TEMP:  72;

TOPEKA FORBES  SUNNY     72  39  30 N14       30.09F
6HR MIN TEMP:  50; 6HR MAX TEMP:  72;

$$




USA.gov is the U.S. government's official web portal to all federal, state and local government web resources and services.